Weather History for Hallock, MN

Change the Weather History Date:

Tuesday, February 5, 2013

  Actual Average Record
Temperature  
Mean Temperature 4 °F -  
Max Temperature 14 °F 10 °F 38 °F (1991)
Min Temperature -5 °F -8 °F -44 °F (1936)
Degree Days  
Heating Degree Days 60    
Moisture  
Dew Point -3 °F    
Average Humidity 78    
Maximum Humidity 92    
Minimum Humidity 66    
Precipitation  
Precipitation 0.00 in - - ()
Sea Level Pressure  
Sea Level Pressure 29.92 in    
Wind  
Wind Speed 11 mph (NNW)    
Max Wind Speed 16 mph    
Max Gust Speed 9 mph    
Visibility 9 miles    
Events Snow    
Averages and records for this station are not official NWS values.
T = Trace of Precipitation, MM = Missing Value Source: NWS Daily Summary

Daily Weather History Graph

Daily Weather History Graph

Search for Another Location

Airport:

Trip Planner

Search our weather history database for the weather conditions in past years. The results will help you decide how hot, cold, wet, or windy it might be!

Date:

Astronomy

Feb. 05, 2013 Rise Set
Actual Time 7:51 AM CST 5:32 PM CST
Civil Twilight 7:17 AM CST 6:06 PM CST
Nautical Twilight 6:40 AM CST 6:43 PM CST
Astronomical Twilight 6:03 AM CST 7:20 PM CST
Moon 3:44 AM CST (2/5) 12:41 PM CST (2/5)
Length of Visible Light 10h 48m
Length of Day
9h 41m
Waning Crescent, 26% of the Moon is Illuminated
Feb 5
Waning Crescent
Feb 10
New
Feb 17
First Quarter
Feb 25
Full
Mar 4
Last Quarter

Hourly Weather History & Observations

Time (CST) Temp. Windchill Dew Point Humidity Pressure Visibility Wind Dir Wind Speed Gust Speed Precip Events Conditions
12:14 AM 14.0 °F -0.2 °F 10.4 °F 86% 29.58 in 10.0 mi North 12.7 mph - N/A   Overcast
12:34 AM 14.0 °F -0.8 °F 10.4 °F 86% 29.60 in 10.0 mi North 13.8 mph - N/A   Overcast
12:54 AM 12.2 °F -2.5 °F 10.4 °F 92% 29.62 in 10.0 mi North 12.7 mph - N/A   Overcast
1:14 AM 12.2 °F -3.1 °F 8.6 °F 85% 29.62 in 10.0 mi North 13.8 mph - N/A   Overcast
1:34 AM 12.2 °F -3.1 °F 8.6 °F 85% 29.63 in 10.0 mi North 13.8 mph - N/A   Mostly Cloudy
1:53 AM 10.4 °F -5.4 °F 8.6 °F 92% 29.65 in 10.0 mi North 13.8 mph - N/A   Mostly Cloudy
2:14 AM 10.4 °F -5.4 °F 6.8 °F 85% 29.66 in 10.0 mi North 13.8 mph - N/A   Scattered Clouds
2:33 AM 10.4 °F -4.8 °F 6.8 °F 85% 29.68 in 10.0 mi North 12.7 mph - N/A   Scattered Clouds
2:54 AM 8.6 °F -7.0 °F 5.0 °F 85% 29.70 in 10.0 mi North 12.7 mph - N/A   Mostly Cloudy
3:14 AM 6.8 °F -10.0 °F 3.2 °F 85% 29.72 in 10.0 mi NNW 13.8 mph - N/A   Scattered Clouds
3:33 AM 5.0 °F -12.3 °F 1.4 °F 85% 29.74 in 10.0 mi NNW 13.8 mph - N/A   Scattered Clouds
3:54 AM 3.2 °F -14.6 °F 1.4 °F 92% 29.75 in 7.0 mi NNW 13.8 mph - N/A   Mostly Cloudy
4:14 AM 3.2 °F -13.9 °F -0.4 °F 85% 29.77 in 10.0 mi NNW 12.7 mph - N/A   Scattered Clouds
4:33 AM 1.4 °F -15.3 °F -2.2 °F 85% 29.78 in 10.0 mi NNW 11.5 mph - N/A   Clear
4:54 AM 1.4 °F -16.9 °F -2.2 °F 85% 29.80 in 10.0 mi NNW 13.8 mph - N/A   Clear
5:14 AM -0.4 °F -19.9 °F -4.0 °F 85% 29.81 in 7.0 mi NNW 15.0 mph - N/A   Clear
5:33 AM -0.4 °F -19.2 °F -4.0 °F 85% 29.82 in 7.0 mi NNW 13.8 mph - N/A   Clear
5:54 AM -2.2 °F -19.9 °F -5.8 °F 85% 29.83 in 7.0 mi NNW 11.5 mph - N/A   Clear
6:14 AM -2.2 °F -19.9 °F -5.8 °F 85% 29.85 in 7.0 mi NNW 11.5 mph - N/A   Clear
6:34 AM -2.2 °F -19.9 °F -5.8 °F 85% 29.86 in 7.0 mi NNW 11.5 mph - N/A   Clear
6:54 AM -4.0 °F -20.2 °F -7.6 °F 85% 29.87 in 5.0 mi NNW 9.2 mph - N/A   Clear
7:14 AM -4.0 °F -21.2 °F -7.6 °F 85% 29.89 in 7.0 mi NNW 10.4 mph - N/A   Clear
7:34 AM -4.0 °F -21.2 °F -7.6 °F 85% 29.91 in 10.0 mi NNW 10.4 mph - N/A   Clear
7:54 AM -4.0 °F -20.2 °F -7.6 °F 85% 29.92 in 10.0 mi NNW 9.2 mph - N/A   Clear
8:14 AM -5.8 °F -24.4 °F -9.4 °F 84% 29.94 in 10.0 mi NNW 11.5 mph - N/A   Clear
8:34 AM -4.0 °F -22.1 °F -7.6 °F 85% 29.95 in 10.0 mi NNW 11.5 mph - N/A   Clear
8:54 AM -5.8 °F -25.2 °F -9.4 °F 84% 29.96 in 10.0 mi NNW 12.7 mph - N/A   Clear
9:14 AM -4.0 °F -22.1 °F -7.6 °F 85% 29.98 in 7.0 mi NNW 11.5 mph - N/A   Mostly Cloudy
9:34 AM -2.2 °F -22.9 °F -7.6 °F 78% 29.98 in 4.0 mi NNW 16.1 mph - N/A   Haze
9:54 AM -2.2 °F -20.7 °F -7.6 °F 78% 29.98 in 4.0 mi North 12.7 mph - N/A   Overcast
10:14 AM -2.2 °F -18.9 °F -7.6 °F 78% 29.99 in 7.0 mi North 10.4 mph - N/A   Overcast
10:34 AM -2.2 °F -16.8 °F -7.6 °F 78% 30.01 in 10.0 mi NNW 8.1 mph - N/A   Overcast
10:54 AM -2.2 °F -16.8 °F -7.6 °F 78% 30.01 in 10.0 mi NNW 8.1 mph - N/A   Overcast
11:14 AM -2.2 °F -16.8 °F -5.8 °F 85% 30.01 in 7.0 mi NNW 8.1 mph - N/A   Overcast
11:34 AM -0.4 °F -16.7 °F -5.8 °F 78% 30.03 in 7.0 mi NNW 10.4 mph - N/A   Overcast
11:54 AM -0.4 °F -18.4 °F -5.8 °F 78% 30.03 in 10.0 mi NW 12.7 mph - N/A   Overcast
12:14 PM -0.4 °F -19.2 °F -5.8 °F 78% 30.03 in 10.0 mi NNW 13.8 mph - N/A   Overcast
12:34 PM -0.4 °F -19.2 °F -5.8 °F 78% 30.03 in 10.0 mi NNW 13.8 mph - N/A   Overcast
12:54 PM -0.4 °F -20.5 °F -5.8 °F 78% 30.03 in 10.0 mi NNW 16.1 mph - N/A   Overcast
1:14 PM 1.4 °F -9.9 °F -5.8 °F 72% 30.02 in 10.0 mi NNW 5.8 mph - N/A   Mostly Cloudy
1:34 PM 1.4 °F -13.5 °F -5.8 °F 72% 30.02 in 10.0 mi NNW 9.2 mph - N/A   Overcast
1:54 PM 1.4 °F -12.5 °F -5.8 °F 72% 30.03 in 10.0 mi NNW 8.1 mph - N/A   Mostly Cloudy
2:14 PM 1.4 °F -13.5 °F -5.8 °F 72% 30.03 in 10.0 mi NNW 9.2 mph - N/A   Mostly Cloudy
2:34 PM 3.2 °F -11.3 °F -5.8 °F 66% 30.04 in 10.0 mi NNW 9.2 mph - N/A   Overcast
2:54 PM 1.4 °F -9.9 °F -5.8 °F 72% 30.03 in 10.0 mi NW 5.8 mph 9.2 mph N/A   Overcast
3:14 PM 1.4 °F -11.3 °F -5.8 °F 72% 30.04 in 10.0 mi North 6.9 mph - N/A   Overcast
3:34 PM 1.4 °F -9.9 °F -5.8 °F 72% 30.04 in 10.0 mi NNW 5.8 mph - N/A   Overcast
3:54 PM 1.4 °F -8.3 °F -5.8 °F 72% 30.04 in 10.0 mi NNW 4.6 mph - N/A   Overcast
4:14 PM 1.4 °F -9.9 °F -5.8 °F 72% 30.05 in 10.0 mi NW 5.8 mph - N/A   Overcast
4:34 PM 1.4 °F -6.2 °F -5.8 °F 72% 30.04 in 10.0 mi NW 3.5 mph - N/A   Overcast
4:54 PM 1.4 °F -6.2 °F -5.8 °F 72% 30.03 in 10.0 mi NW 3.5 mph - N/A   Overcast
5:14 PM 3.2 °F -6.2 °F -4.0 °F 72% 30.02 in 10.0 mi NW 4.6 mph - N/A   Overcast
5:34 PM 1.4 °F -6.2 °F -5.8 °F 72% 30.03 in 10.0 mi NW 3.5 mph - N/A   Overcast
5:54 PM 1.4 °F -8.3 °F -5.8 °F 72% 30.04 in 10.0 mi WNW 4.6 mph - N/A   Overcast
6:14 PM 3.2 °F -6.2 °F -5.8 °F 66% 30.04 in 10.0 mi NW 4.6 mph - N/A   Overcast
6:34 PM 3.2 °F -4.2 °F -5.8 °F 66% 30.03 in 10.0 mi WNW 3.5 mph - N/A   Overcast
6:54 PM 3.2 °F - -5.8 °F 66% 30.03 in 10.0 mi Calm Calm - N/A   Overcast
7:14 PM 3.2 °F - -5.8 °F 66% 30.03 in 10.0 mi Calm Calm - N/A   Overcast
7:54 PM 3.2 °F - -5.8 °F 66% 30.01 in 10.0 mi Calm Calm - N/A   Overcast
8:34 PM 3.2 °F - -5.8 °F 66% 30.02 in 10.0 mi Calm Calm - N/A   Overcast
8:54 PM 3.2 °F -6.2 °F -4.0 °F 72% 30.02 in 10.0 mi South 4.6 mph - N/A   Overcast
9:14 PM 3.2 °F -7.8 °F -2.2 °F 78% 30.01 in 10.0 mi South 5.8 mph - N/A   Overcast
9:34 PM 3.2 °F -7.8 °F -2.2 °F 78% 30.01 in 10.0 mi South 5.8 mph - N/A   Overcast
9:54 PM 3.2 °F -10.3 °F -2.2 °F 78% 30.01 in 10.0 mi South 8.1 mph - N/A   Overcast
10:14 PM 3.2 °F -10.3 °F -2.2 °F 78% 30.01 in 10.0 mi South 8.1 mph - N/A   Overcast
10:34 PM 5.0 °F -6.9 °F -2.2 °F 72% 30.01 in 10.0 mi South 6.9 mph - N/A   Overcast
10:54 PM 5.0 °F -6.9 °F -2.2 °F 72% 30.00 in 10.0 mi SSE 6.9 mph - N/A   Overcast
11:14 PM 5.0 °F -8.1 °F -2.2 °F 72% 29.99 in 10.0 mi SSE 8.1 mph - N/A Snow Light Snow
11:34 PM 5.0 °F -8.1 °F -0.4 °F 78% 29.99 in 7.0 mi SSE 8.1 mph - N/A Snow Light Snow
11:54 PM 5.0 °F -9.1 °F -0.4 °F 78% 29.99 in 10.0 mi SSE 9.2 mph - N/A Snow Light Snow